Date String (YYYY-MM-DD hh:mm:ss) UTC,Instrument flags,Ambient pressure (hPa),Sample flow (lpm),Bypass flow (lpm),Sample temperature (°C),Ambient temperature (°C),ASC tube jacket temperature (°C),LED temperature (°C),Box temperature (°C),Sample RH (%),Span deviation,Mass concentration (μg/m³),Mass concentration (μg/m³),Mass concentration (μg/m³)
DateTimeUTC,F1_M11,P_M11,Q1_M11,Q2_M11,T1_M11,T2_M11,T3_M11,T4_M11,T5_M11,U1_M11,ZSPAN_M11,X2_M11,X0_M11,X1_M11
2022-02-16 13:00:00,,0816.0,5.01,0.00,22.5,21.4,00.0,31.6,24.1,14.2,0000.0,0004.18,0009.75,0003.62
2022-02-16 13:01:00,,0816.0,4.99,0.00,22.4,21.4,00.0,31.6,24.1,14.2,0000.0,0004.18,0009.73,0003.63
2022-02-16 13:02:00,,0816.0,5.00,0.00,22.4,21.3,00.0,31.5,24.1,14.2,0000.0,0004.22,0009.99,0003.67
2022-02-16 13:03:00,,0816.0,5.01,0.00,22.4,21.3,00.0,31.5,24.1,14.3,0000.0,0004.26,0009.74,0003.69
2022-02-16 13:04:00,,0816.0,4.99,0.00,22.4,21.2,00.0,31.5,24.0,14.3,0000.0,0004.25,0009.03,0003.70
2022-02-16 13:05:00,,0816.0,5.01,0.00,22.3,21.2,00.0,31.5,24.0,14.3,0000.0,0004.24,0008.70,0003.70
2022-02-16 13:06:00,,0816.0,5.01,0.00,22.3,21.2,00.0,31.4,24.0,14.3,0000.0,0004.23,0008.62,0003.71
2022-02-16 13:07:00,,0816.0,4.98,0.00,22.3,21.3,00.0,31.4,24.0,14.3,0000.0,0004.27,0008.81,0003.72
2022-02-16 13:08:00,,0815.9,5.00,0.00,22.3,21.4,00.0,31.4,24.0,14.3,0000.0,0004.26,0008.45,0003.74
2022-02-16 13:09:00,,0815.9,5.01,0.00,22.3,21.4,00.0,31.4,24.0,14.3,0000.0,0004.25,0007.83,0003.76
2022-02-16 13:10:00,,0816.0,4.99,0.00,22.3,21.3,00.0,31.4,24.0,14.3,0000.0,0004.29,0008.36,0003.80
2022-02-16 13:11:00,,0816.0,4.99,0.00,22.3,21.3,00.0,31.4,24.0,14.3,0000.0,0004.29,0008.72,0003.82
2022-02-16 13:12:00,,0815.9,5.01,0.00,22.3,21.3,00.0,31.4,24.0,14.3,0000.0,0004.31,0008.70,0003.85
2022-02-16 13:13:00,,0815.9,5.00,0.00,22.3,21.3,00.0,31.3,24.0,14.3,0000.0,0004.32,0008.43,0003.86
2022-02-16 13:14:00,,0815.9,4.99,0.00,22.2,21.3,00.0,31.3,23.9,14.3,0000.0,0004.33,0008.63,0003.87
2022-02-16 13:15:00,,0816.0,5.00,0.00,22.2,21.2,00.0,31.3,23.9,14.3,0000.0,0004.33,0009.05,0003.88
2022-02-16 13:16:00,,0815.9,5.01,0.00,22.2,21.3,00.0,31.3,23.9,14.3,0000.0,0004.35,0009.15,0003.90
2022-02-16 13:17:00,,0816.0,4.99,0.00,22.2,21.4,00.0,31.3,24.0,14.2,0000.0,0004.36,0009.07,0003.93
2022-02-16 13:18:00,,0815.9,5.00,0.00,22.2,21.4,00.0,31.3,24.0,14.2,0000.0,0004.36,0008.92,0003.95
2022-02-16 13:19:00,,0815.9,5.00,0.00,22.2,21.5,00.0,31.3,24.0,14.2,0000.0,0004.39,0009.01,0003.97
2022-02-16 13:20:00,,0815.9,5.01,0.00,22.3,21.6,00.0,31.3,24.1,14.2,0000.0,0004.41,0009.50,0003.99
2022-02-16 13:21:00,,0815.9,5.00,0.00,22.3,21.6,00.0,31.3,24.1,14.2,0000.0,0004.40,0009.44,0003.99
2022-02-16 13:22:00,,0815.9,4.99,0.00,22.3,21.6,00.0,31.3,24.1,14.1,0000.0,0004.38,0008.80,0004.00
2022-02-16 13:23:00,,0815.8,5.00,0.00,22.3,21.6,00.0,31.3,24.1,14.1,0000.0,0004.40,0008.87,0004.01
2022-02-16 13:24:00,,0815.8,5.01,0.00,22.3,21.5,00.0,31.3,24.0,14.1,0000.0,0004.40,0008.85,0004.03
2022-02-16 13:25:00,,0815.8,5.00,0.00,22.3,21.5,00.0,31.3,24.0,14.1,0000.0,0004.40,0008.76,0004.05
2022-02-16 13:26:00,,0815.8,5.00,0.00,22.2,21.4,00.0,31.2,24.0,14.1,0000.0,0004.42,0008.22,0004.07
2022-02-16 13:27:00,,0815.8,4.99,0.00,22.2,21.4,00.0,31.2,24.0,14.1,0000.0,0004.43,0007.99,0004.08
2022-02-16 13:28:00,,0815.8,5.01,0.00,22.2,21.4,00.0,31.2,24.0,14.1,0000.0,0004.45,0008.11,0004.08
2022-02-16 13:29:00,,0815.8,5.01,0.00,22.2,21.4,00.0,31.2,24.0,14.1,0000.0,0004.45,0008.23,0004.09
2022-02-16 13:30:00,,0815.8,4.99,0.00,22.2,21.5,00.0,31.2,24.0,14.1,0000.0,0004.44,0008.18,0004.09
2022-02-16 13:31:00,,0815.8,4.99,0.00,22.2,21.5,00.0,31.2,24.0,14.1,0000.0,0004.45,0007.88,0004.10
2022-02-16 13:32:00,,0815.8,5.00,0.00,22.2,21.6,00.0,31.2,24.0,14.1,0000.0,0004.49,0007.68,0004.11
2022-02-16 13:33:00,,0815.8,5.02,0.00,22.2,21.6,00.0,31.2,24.0,14.1,0000.0,0004.54,0007.90,0004.13
2022-02-16 13:34:00,,0815.8,4.99,0.00,22.3,21.7,00.0,31.2,24.0,14.0,0000.0,0004.58,0007.99,0004.13
2022-02-16 13:35:00,,0815.7,4.99,0.00,22.3,21.6,00.0,31.2,24.1,14.0,0000.0,0004.60,0008.06,0004.13
2022-02-16 13:36:00,,0815.7,5.00,0.00,22.3,21.6,00.0,31.2,24.1,14.0,0000.0,0004.63,0008.18,0004.13
2022-02-16 13:37:00,,0815.7,5.01,0.00,22.3,21.6,00.0,31.2,24.1,14.0,0000.0,0004.62,0008.19,0004.13
2022-02-16 13:38:00,,0815.7,4.99,0.00,22.3,21.6,00.0,31.2,24.1,14.0,0000.0,0004.65,0008.33,0004.14
2022-02-16 13:39:00,,0815.8,5.00,0.00,22.3,21.6,00.0,31.2,24.1,14.0,0000.0,0004.67,0008.35,0004.16
2022-02-16 13:40:00,,0815.8,5.01,0.00,22.3,21.7,00.0,31.3,24.1,14.0,0000.0,0004.67,0008.28,0004.16
2022-02-16 13:41:00,,0815.8,5.01,0.00,22.3,21.7,00.0,31.3,24.1,14.0,0000.0,0004.71,0008.72,0004.17
2022-02-16 13:42:00,,0815.8,5.00,0.00,22.3,21.7,00.0,31.3,24.1,14.0,0000.0,0004.71,0008.69,0004.18
2022-02-16 13:43:00,,0815.8,5.00,0.00,22.4,21.8,00.0,31.3,24.1,13.9,0000.0,0004.70,0008.63,0004.18
2022-02-16 13:44:00,,0815.8,4.99,0.00,22.4,21.8,00.0,31.3,24.1,13.9,0000.0,0004.70,0008.54,0004.18
2022-02-16 13:45:00,,0815.8,5.01,0.00,22.4,21.8,00.0,31.3,24.2,13.9,0000.0,0004.69,0008.63,0004.19
2022-02-16 13:46:00,,0815.8,5.00,0.00,22.4,21.8,00.0,31.3,24.2,13.9,0000.0,0004.69,0009.10,0004.19
2022-02-16 13:47:00,,0815.8,4.99,0.00,22.4,21.8,00.0,31.3,24.2,13.9,0000.0,0004.71,0009.14,0004.19
2022-02-16 13:48:00,,0815.8,4.99,0.00,22.4,21.8,00.0,31.3,24.2,13.9,0000.0,0004.76,0009.24,0004.21
2022-02-16 13:49:00,,0815.8,5.01,0.00,22.4,21.8,00.0,31.3,24.2,13.9,0000.0,0004.77,0009.18,0004.23
2022-02-16 13:50:00,,0815.8,5.00,0.00,22.4,21.8,00.0,31.3,24.2,13.9,0000.0,0004.78,0009.04,0004.24
2022-02-16 13:51:00,,0815.8,4.99,0.00,22.5,21.8,00.0,31.4,24.2,13.9,0000.0,0004.79,0009.21,0004.24
2022-02-16 13:52:00,,0815.8,4.99,0.00,22.5,21.8,00.0,31.4,24.3,14.0,0000.0,0004.79,0008.80,0004.25
2022-02-16 13:53:00,,0815.8,5.01,0.00,22.5,21.8,00.0,31.4,24.2,14.0,0000.0,0004.81,0008.86,0004.27
2022-02-16 13:54:00,,0815.8,5.01,0.00,22.5,21.8,00.0,31.4,24.2,14.0,0000.0,0004.82,0008.88,0004.28
2022-02-16 13:55:00,,0815.8,5.00,0.00,22.5,21.8,00.0,31.4,24.2,14.0,0000.0,0004.84,0009.01,0004.30
2022-02-16 13:56:00,,0815.8,4.99,0.00,22.5,21.8,00.0,31.4,24.3,14.0,0000.0,0004.85,0008.96,0004.32
2022-02-16 13:57:00,,0815.8,5.00,0.00,22.5,21.8,00.0,31.4,24.3,14.0,0000.0,0004.86,0008.37,0004.33
2022-02-16 13:58:00,,0815.8,4.99,0.00,22.5,21.8,00.0,31.4,24.3,14.0,0000.0,0004.87,0008.33,0004.34
2022-02-16 13:59:00,,0815.8,5.00,0.00,22.5,21.8,00.0,31.4,24.3,14.0,0000.0,0004.87,0008.31,0004.35
